IW1CGW-13 Weather Reports


Display with metric or nautical units.
time (UTC)temp
F
wind
direction
speed
MPH
gust
MPH
rain 1hr
in
rain 24hr
in
rain mn
in
humidity
%
barometer
mb
20260506204122 52 0.0 0.0 0.00 0.00 0.00 81 1009.4
20260506203101 53 0.0 0.0 0.00 0.00 0.00 81 1009.2
20260506202045 53 0.0 0.0 0.00 0.00 0.00 81 1009.1
20260506201020 53 0.0 0.0 0.00 0.00 0.00 81 1008.8
20260506195953 52 0.0 0.0 0.00 0.00 0.00 81 1008.6
20260506194933 52 0.0 0.0 0.00 0.00 0.00 81 1008.3
20260506193912 52 0.0 0.0 0.00 0.00 0.00 80 1008.1
20260506192846 53 0.0 0.0 0.00 0.00 0.00 79 1007.8
20260506191825 54 0.0 0.0 0.00 0.00 0.00 80 1007.4
20260506190805 54 0.0 0.0 0.00 0.00 0.00 80 1007.1
20260506185744 55 0.0 0.0 0.00 0.00 0.00 80 1007.0
20260506184723 55 0.0 0.0 0.00 0.00 0.00 79 1006.8
20260506183702 55 0.0 0.0 0.00 0.00 0.00 80 1006.7
20260506182640 56 0.0 0.0 0.00 0.00 0.00 79 1006.5
20260506181619 56 0.0 0.0 0.00 0.00 0.00 79 1006.3
20260506180557 58 0.0 0.0 0.00 0.00 0.00 79 1006.2
20260506175536 58 0.0 0.0 0.00 0.00 0.00 79 1006.0
20260506174515 58 0.0 0.0 0.00 0.00 0.00 79 1005.8
20260506173453 58 0.0 0.0 0.00 0.00 0.00 79 1005.6
20260506172429 59 0.0 0.0 0.00 0.00 0.00 79 1005.5
20260506171408 59 0.0 0.0 0.00 0.00 0.00 79 1005.5
20260506170347 59 0.0 0.0 0.00 0.00 0.00 79 1005.5
20260506165327 60 0.0 0.0 0.00 0.00 0.00 79 1005.4
20260506164306 59 0.0 0.0 0.00 0.00 0.00 79 1005.4
20260506163245 59 0.0 0.0 0.00 0.00 0.00 78 1005.3
20260506162222 60 0.0 0.0 0.00 0.00 0.00 78 1005.3
20260506161201 61 0.0 0.0 0.00 0.00 0.00 77 1005.3
20260506160139 62 0.0 0.0 0.00 0.00 0.00 77 1005.3
20260506155059 63 0.0 0.0 0.00 0.00 0.00 76 1005.1
20260506154037 64 0.0 0.0 0.00 0.00 0.00 76 1004.9
20260506153016 67 0.0 0.0 0.00 0.00 0.00 75 1005.0
20260506151956 67 0.0 0.0 0.00 0.00 0.00 75 1005.0
20260506150925 70 0.0 0.0 0.00 0.00 0.00 73 1005.0
20260506145904 71 0.0 0.0 0.00 0.00 0.00 75 1005.1
20260506144843 69 0.0 0.0 0.00 0.00 0.00 76 1005.1
20260506143822 69 0.0 0.0 0.00 0.00 0.00 79 1005.1
20260506142801 68 0.0 0.0 0.00 0.00 0.00 78 1005.1
20260506141740 69 0.0 0.0 0.00 0.00 0.00 76 1005.2
20260506135657 70 0.0 0.0 0.00 0.00 0.00 77 1005.2
20260506134636 68 0.0 0.0 0.00 0.00 0.00 79 1005.3
20260506133615 69 0.0 0.0 0.00 0.00 0.00 78 1005.3
20260506132554 67 0.0 0.0 0.00 0.00 0.00 79 1005.4
20260506131533 66 0.0 0.0 0.00 0.00 0.00 79 1005.5
20260506130512 67 0.0 0.0 0.00 0.00 0.00 77 1005.6
20260506125452 73 0.0 0.0 0.00 0.00 0.00 77 1005.6
20260506124431 71 0.0 0.0 0.00 0.00 0.00 77 1005.6
20260506123410 73 0.0 0.0 0.00 0.00 0.00 79 1005.5
20260506122349 70 0.0 0.0 0.00 0.00 0.00 77 1005.5
20260506121329 70 0.0 0.0 0.00 0.00 0.00 77 1005.5
20260506120305 69 0.0 0.0 0.00 0.00 0.00 78 1005.6
20260506115244 70 0.0 0.0 0.00 0.00 0.00 80 1005.6
20260506114223 68 0.0 0.0 0.00 0.00 0.00 81 1005.8
20260506113157 66 0.0 0.0 0.00 0.00 0.00 80 1006.0
20260506111112 67 0.0 0.0 0.00 0.00 0.00 76 1006.0
20260506110053 67 0.0 0.0 0.00 0.00 0.00 78 1006.2
20260506105030 64 0.0 0.0 0.00 0.00 0.00 80 1006.3
20260506104010 61 0.0 0.0 0.00 0.00 0.00 79 1006.5
20260506102948 64 0.0 0.0 0.00 0.00 0.00 79 1006.6
20260506101919 63 0.0 0.0 0.00 0.00 0.00 79 1006.6
20260506100854 62 0.0 0.0 0.00 0.00 0.00 81 1006.8
20260506095834 61 0.0 0.0 0.00 0.00 0.00 81 1006.7
20260506094812 58 0.0 0.0 0.00 0.00 0.00 80 1006.8
20260506093751 59 0.0 0.0 0.00 0.00 0.00 82 1006.8
20260506092731 59 0.0 0.0 0.00 0.00 0.00 78 1006.8
20260506091707 58 0.0 0.0 0.00 0.00 0.00 82 1006.9
20260506090641 58 0.0 0.0 0.00 0.00 0.00 81 1006.8
20260506085619 57 0.0 0.0 0.00 0.00 0.00 82 1006.8
20260506084559 56 0.0 0.0 0.00 0.00 0.00 83 1006.8
20260506083538 56 0.0 0.0 0.00 0.00 0.00 85 1006.9
20260506082517 54 0.0 0.0 0.00 0.00 0.00 83 1006.9
20260506081456 53 0.0 0.0 0.00 0.00 0.00 84 1006.9
20260506080436 52 0.0 0.0 0.00 0.00 0.00 85 1007.0
20260506073331 50 0.0 0.0 0.00 0.00 0.00 84 1007.0
20260506072310 51 0.0 0.0 0.00 0.00 0.00 84 1006.9
20260506071249 50 0.0 0.0 0.00 0.00 0.00 85 1007.0
20260506070228 50 0.0 0.0 0.00 0.00 0.00 85 1007.1
20260506062101 49 0.0 0.0 0.00 0.00 0.00 86 1007.3
20260506061041 49 0.0 0.0 0.00 0.00 0.00 86 1007.4
20260506050753 47 0.0 0.0 0.00 0.00 0.00 85 1007.6
20260506044706 47 0.0 0.0 0.00 0.00 0.00 85 1007.6
20260506043646 47 0.0 0.0 0.00 0.00 0.00 85 1007.7
20260506042621 47 0.0 0.0 0.00 0.00 0.00 85 1008.0
20260506041600 47 0.0 0.0 0.00 0.00 0.00 85 1008.0
20260506035519 48 0.0 0.0 0.00 0.00 0.00 85 1008.3
20260506034458 47 0.0 0.0 0.00 0.00 0.00 85 1008.1
20260506033437 48 0.0 0.0 0.00 0.00 0.00 85 1008.2
20260506032416 48 0.0 0.0 0.00 0.00 0.00 85 1008.7
20260506031353 47 0.0 0.0 0.00 0.00 0.00 85 1008.0
20260506030332 48 0.0 0.0 0.00 0.00 0.00 85 1008.5
20260506025311 48 0.0 0.0 0.00 0.00 0.00 85 1008.9
20260506024250 48 0.0 0.0 0.00 0.00 0.00 85 1008.6
20260506023228 48 0.0 0.0 0.00 0.00 0.00 85 1008.9
20260506022207 48 0.0 0.0 0.00 0.00 0.00 85 1009.1
20260506021147 48 0.0 0.0 0.00 0.00 0.00 85 1009.3
20260506020119 48 0.0 0.0 0.00 0.00 0.00 85 1009.1
20260506015059 48 0.0 0.0 0.00 0.00 0.00 84 1009.0
20260506014038 48 0.0 0.0 0.00 0.00 0.00 84 1009.1
20260506011954 48 0.0 0.0 0.00 0.00 0.00 84 1009.3
20260506010933 48 0.0 0.0 0.00 0.00 0.00 84 1009.4
20260506005912 48 0.0 0.0 0.00 0.00 0.00 84 1009.7
20260506004852 49 0.0 0.0 0.00 0.00 0.00 84 1009.9
20260506003831 49 0.0 0.0 0.00 0.00 0.00 84 1010.1
20260506002810 49 0.0 0.0 0.00 0.00 0.00 84 1010.2
20260506001749 49 0.0 0.0 0.00 0.00 0.00 84 1010.4
20260506000728 49 0.0 0.0 0.00 0.00 0.00 84 1010.7
20260505235707 49 0.0 0.0 0.00 0.00 0.00 84 1011.0
20260505234646 49 0.0 0.0 0.00 0.00 0.00 84 1010.7
20260505233623 49 0.0 0.0 0.00 0.00 0.00 84 1010.9
20260505232602 49 0.0 0.0 0.00 0.00 0.00 84 1011.2
20260505231541 49 0.0 0.0 0.00 0.00 0.00 84 1011.4
20260505230521 49 0.0 0.0 0.00 0.00 0.00 84 1011.3
20260505225500 49 0.0 0.0 0.00 0.00 0.00 84 1011.2
20260505224519 49 0.0 0.0 0.00 0.00 0.00 84 1011.3
20260505224456 49 0.0 0.0 0.00 0.00 0.00 84 1011.3
20260505224443 49 0.0 0.0 0.00 0.00 0.00 84 1011.3
20260505223418 49 0.0 0.0 0.00 0.00 0.00 84 1011.3
20260505222358 49 0.0 0.0 0.00 0.00 0.00 84 1011.4
20260505221337 49 0.0 0.0 0.00 0.00 0.00 84 1011.5
20260505220316 49 0.0 0.0 0.00 0.00 0.00 84 1011.6
20260505214234 49 0.0 0.0 0.00 0.00 0.00 84 1011.7
20260505213213 49 0.0 0.0 0.00 0.00 0.00 84 1011.8
20260505212152 49 0.0 0.0 0.00 0.00 0.00 83 1011.8
20260505211131 50 0.0 0.0 0.00 0.00 0.00 83 1011.9
20260505210111 50 0.0 0.0 0.00 0.00 0.00 83 1012.1
20260505205050 50 0.0 0.0 0.00 0.00 0.00 83 1012.1